Boulder City, NV

5:51 PM PDT on May 24, 2017 (GMT -0700)
Boulder City

Weather History for KBVU - August, 2014

Change the Weather History Date:

Sunday, August 31, 2014

  Actual Average (KLAS) Record (KLAS)
Temperature  
Mean Temperature 90 °F -  
Max Temperature 104 °F 99 °F 112 °F (1948)
Min Temperature 77 °F 73 °F 55 °F (1942)
Cooling Degree Days 26    
Growing Degree Days 40 (Base 50)    
Moisture  
Dew Point 28 °F    
Average Humidity 11    
Maximum Humidity 21    
Minimum Humidity 6    
Precipitation  
Precipitation 0.00 in - - ()
Sea Level Pressure  
Sea Level Pressure 29.78 in    
Wind  
Wind Speed 5 mph (SSE)    
Max Wind Speed 18 mph    
Max Gust Speed 25 mph    
Visibility 10 miles    
Events      
Averages and records for this station are not official NWS values.
T = Trace of Precipitation, MM = Missing Value Source: NWS Daily Summary

Daily Weather History Graph

Daily Weather History Graph

Search for Another Location

Airport or City:

Trip Planner

Search our weather history database for the weather conditions in past years. The results will help you decide how hot, cold, wet, or windy it might be!

Date:

Astronomy

Aug. 31, 2014 Rise Set
Actual Time 6:10 AM PDT 7:08 PM PDT
Civil Twilight 5:44 AM PDT 7:34 PM PDT
Nautical Twilight 5:13 AM PDT 8:05 PM PDT
Astronomical Twilight 4:41 AM PDT 8:37 PM PDT
Moon 11:49 AM PDT (8/31) 10:38 PM PDT (8/31)
Length of Visible Light 13h 50m
Length of Day
12h 57m
Waxing Crescent, 33% of the Moon is Illuminated
Aug 31
Waxing Crescent
Sep 2
First Quarter
Sep 8
Full
Sep 15
Last Quarter
Sep 23
New

Hourly Weather History & Observations

Time (PDT) Temp. Dew Point Humidity Pressure Visibility Wind Dir Wind Speed Gust Speed Precip Events Conditions
12:15 AM 87.8 °F 32.0 °F 14% 29.74 in 10.0 mi Calm Calm - N/A   Clear
12:35 AM 82.4 °F 39.2 °F 21% 29.74 in 10.0 mi Calm Calm - N/A   Clear
12:55 AM 82.4 °F 37.4 °F 20% 29.74 in 10.0 mi Calm Calm - N/A   Clear
1:15 AM 87.8 °F 32.0 °F 14% 29.74 in 10.0 mi SSE 6.9 mph - N/A   Clear
1:35 AM 86.0 °F 32.0 °F 14% 29.74 in 10.0 mi South 8.1 mph - N/A   Clear
1:55 AM 86.0 °F 30.2 °F 13% 29.73 in 10.0 mi South 6.9 mph - N/A   Clear
2:15 AM 86.0 °F 32.0 °F 14% 29.73 in 10.0 mi SSE 11.5 mph - N/A   Clear
2:35 AM 86.0 °F 30.2 °F 13% 29.73 in 10.0 mi South 10.4 mph - N/A   Clear
2:55 AM 87.8 °F 30.2 °F 13% 29.74 in 10.0 mi South 10.4 mph - N/A   Clear
3:15 AM 86.0 °F 28.4 °F 12% 29.74 in 10.0 mi SW 13.8 mph 19.6 mph N/A   Clear
3:35 AM 86.0 °F 28.4 °F 12% 29.75 in 10.0 mi South 8.1 mph 16.1 mph N/A   Clear
3:55 AM 86.0 °F 32.0 °F 14% 29.76 in 10.0 mi SE 5.8 mph 15.0 mph N/A   Clear
4:15 AM 86.0 °F 30.2 °F 13% 29.76 in 10.0 mi South 5.8 mph - N/A   Clear
4:35 AM 84.2 °F 30.2 °F 14% 29.76 in 10.0 mi Calm Calm - N/A   Clear
4:55 AM 80.6 °F 30.2 °F 16% 29.76 in 10.0 mi Calm Calm - N/A   Clear
5:15 AM 82.4 °F 26.6 °F 13% 29.77 in 10.0 mi SW 4.6 mph - N/A   Clear
5:35 AM 82.4 °F 26.6 °F 13% 29.78 in 10.0 mi SSW 5.8 mph - N/A   Clear
5:55 AM 82.4 °F 24.8 °F 12% 29.79 in 10.0 mi Calm Calm - N/A   Clear
6:15 AM 78.8 °F 28.4 °F 16% 29.80 in 10.0 mi Calm Calm - N/A   Clear
6:35 AM 78.8 °F 32.0 °F 18% 29.80 in 10.0 mi ENE 4.6 mph - N/A   Clear
6:55 AM 77.0 °F 30.2 °F 18% 29.81 in 10.0 mi Calm Calm - N/A   Clear
7:15 AM 80.6 °F 32.0 °F 17% 29.82 in 10.0 mi Calm Calm - N/A   Clear
7:35 AM 82.4 °F 32.0 °F 16% 29.82 in 10.0 mi North 3.5 mph - N/A   Clear
7:55 AM 87.8 °F 23.0 °F 9% 29.83 in 10.0 mi Calm Calm - N/A   Clear
8:15 AM 89.6 °F 23.0 °F 9% 29.83 in 10.0 mi Calm Calm - N/A   Clear
8:35 AM 89.6 °F 26.6 °F 10% 29.84 in 10.0 mi East 4.6 mph - N/A   Clear
8:55 AM 89.6 °F 23.0 °F 9% 29.84 in 10.0 mi Calm Calm - N/A   Clear
9:15 AM 91.4 °F 23.0 °F 8% 29.84 in 10.0 mi Calm Calm - N/A   Clear
9:35 AM 91.4 °F 24.8 °F 9% 29.85 in 10.0 mi Calm Calm - N/A   Clear
9:55 AM 93.2 °F 24.8 °F 9% 29.85 in 10.0 mi Calm Calm - N/A   Clear
10:15 AM 93.2 °F 23.0 °F 8% 29.85 in 10.0 mi Calm Calm - N/A   Clear
10:35 AM 95.0 °F 24.8 °F 8% 29.85 in 10.0 mi NE 3.5 mph - N/A   Clear
10:55 AM 95.0 °F 24.8 °F 8% 29.85 in 10.0 mi Variable 4.6 mph - N/A   Clear
11:15 AM 95.0 °F 24.8 °F 8% 29.85 in 10.0 mi East 5.8 mph - N/A   Clear
11:35 AM 96.8 °F 24.8 °F 8% 29.84 in 10.0 mi East 5.8 mph 11.5 mph N/A   Clear
11:55 AM 96.8 °F 24.8 °F 8% 29.84 in 10.0 mi Calm Calm - N/A   Clear
12:15 PM 98.6 °F 24.8 °F 7% 29.83 in 10.0 mi Calm Calm - N/A   Clear
12:35 PM 98.6 °F 24.8 °F 7% 29.83 in 10.0 mi NE 6.9 mph - N/A   Clear
12:55 PM 100.4 °F 24.8 °F 7% 29.82 in 10.0 mi SSW 10.4 mph - N/A   Clear
1:15 PM 100.4 °F 24.8 °F 7% 29.82 in 10.0 mi WSW 4.6 mph 11.5 mph N/A   Clear
1:35 PM 100.4 °F 24.8 °F 7% 29.81 in 10.0 mi Variable 5.8 mph 12.7 mph N/A   Clear
1:55 PM 100.4 °F 24.8 °F 7% 29.80 in 10.0 mi Variable 4.6 mph 13.8 mph N/A   Clear
2:15 PM 102.2 °F 24.8 °F 6% 29.79 in - SW 9.2 mph - N/A   Clear
2:35 PM 102.2 °F 24.8 °F 6% 29.78 in 10.0 mi Variable 4.6 mph - N/A   Clear
2:55 PM 102.2 °F 24.8 °F 6% 29.77 in 10.0 mi SSE 9.2 mph 16.1 mph N/A   Clear
3:15 PM 102.2 °F 24.8 °F 6% 29.77 in 10.0 mi SW 5.8 mph - N/A   Clear
3:35 PM 102.2 °F 26.6 °F 7% 29.76 in 10.0 mi Variable 6.9 mph - N/A   Clear
3:55 PM 104.0 °F 28.4 °F 7% 29.75 in 10.0 mi SE 12.7 mph - N/A   Clear
4:15 PM 102.2 °F 28.4 °F 7% 29.74 in 10.0 mi ESE 9.2 mph 18.4 mph N/A   Clear
4:35 PM 102.2 °F 28.4 °F 7% 29.74 in 10.0 mi East 8.1 mph - N/A   Clear
4:55 PM 104.0 °F 28.4 °F 7% 29.74 in 10.0 mi South 10.4 mph 24.2 mph N/A   Clear
5:15 PM 104.0 °F 30.2 °F 8% 29.73 in 10.0 mi SE 17.3 mph - N/A   Clear
5:35 PM 102.2 °F 30.2 °F 8% 29.73 in 10.0 mi SSE 17.3 mph 25.3 mph N/A   Clear
6:15 PM 100.4 °F 30.2 °F 9% 29.72 in 10.0 mi SSE 18.4 mph - N/A   Clear
6:35 PM 100.4 °F 32.0 °F 9% 29.72 in 10.0 mi SE 18.4 mph 25.3 mph N/A   Clear
6:55 PM 98.6 °F 33.8 °F 10% 29.72 in 10.0 mi SSE 17.3 mph 24.2 mph N/A   Clear
7:15 PM 98.6 °F 33.8 °F 10% 29.73 in 10.0 mi SE 13.8 mph 24.2 mph N/A   Clear
7:35 PM 96.8 °F 35.6 °F 12% 29.73 in 10.0 mi SSE 12.7 mph - N/A   Clear
7:55 PM 96.8 °F 32.0 °F 10% 29.74 in 10.0 mi SSE 12.7 mph 19.6 mph N/A   Clear
8:15 PM 95.0 °F 30.2 °F 10% 29.75 in 10.0 mi SSE 13.8 mph - N/A   Clear
8:35 PM 95.0 °F 30.2 °F 10% 29.76 in 10.0 mi SSE 11.5 mph - N/A   Clear
8:55 PM 93.2 °F 26.6 °F 9% 29.76 in 10.0 mi SSE 10.4 mph - N/A   Clear
9:15 PM 93.2 °F 26.6 °F 9% 29.76 in 10.0 mi SSE 11.5 mph - N/A   Clear
9:35 PM 91.4 °F 26.6 °F 10% 29.77 in 10.0 mi South 9.2 mph - N/A   Clear
9:55 PM 89.6 °F 26.6 °F 10% 29.78 in 10.0 mi Calm Calm - N/A   Clear
10:15 PM 93.2 °F 26.6 °F 9% 29.78 in 10.0 mi South 6.9 mph - N/A   Clear
10:35 PM 91.4 °F 26.6 °F 10% 29.78 in 10.0 mi SW 3.5 mph - N/A   Clear
10:55 PM 87.8 °F 28.4 °F 12% 29.78 in 10.0 mi Calm Calm - N/A   Clear
11:15 PM 87.8 °F 30.2 °F 13% 29.78 in 10.0 mi Calm Calm - N/A   Clear
11:35 PM 86.0 °F 32.0 °F 14% 29.78 in 10.0 mi Calm Calm - N/A   Clear
11:55 PM 87.8 °F 26.6 °F 11% 29.79 in 10.0 mi Variable 3.5 mph - N/A   Clear